Change the Weather History Date:

Friday, January 31, 2014

  Actual Average Record
Temperature  
Mean Temperature -5 °F -  
Max Temperature 1 °F 1 °F 21 °F (2007)
Min Temperature -11 °F -10 °F -38 °F (2005)
Degree Days  
Heating Degree Days 70    
Moisture  
Dew Point -11 °F    
Average Humidity 79    
Maximum Humidity 85    
Minimum Humidity 71    
Precipitation  
Precipitation 0.00 in - - ()
Snow  
Snow 0.00 in - - ()
Snow Depth 16.00 in    
Sea Level Pressure  
Sea Level Pressure 30.35 in    
Wind  
Wind Speed 0 mph (ENE)    
Max Wind Speed 4 mph    
Max Gust Speed -    
Visibility 10 miles    
Events      
Averages and records for this station are not official NWS values.
T = Trace of Precipitation, MM = Missing Value Source: NWS Daily Summary

Daily Weather History Graph

Daily Weather History Graph

Search for Another Location

Airport or City:

Trip Planner

Search our weather history database for the weather conditions in past years. The results will help you decide how hot, cold, wet, or windy it might be!

Date:

Astronomy

Jan. 31, 2014 Rise Set
Actual Time 9:38 AM AKST 4:30 PM AKST
Civil Twilight 8:39 AM AKST 5:29 PM AKST
Nautical Twilight 7:38 AM AKST 6:30 PM AKST
Astronomical Twilight 6:41 AM AKST 7:28 PM AKST
Moon 9:07 AM AKST (1/31) 7:03 PM AKST (1/31)
Length of Visible Light 8h 50m
Length of Day
6h 51m
New Moon, 1% of the Moon is Illuminated
Jan 31
New Moon
Feb 6
First Quarter
Feb 14
Full
Feb 22
Last Quarter
Feb 28
New

Hourly Weather History & Observations

Time (AKST) Temp. Windchill Dew Point Humidity Pressure Visibility Wind Dir Wind Speed Gust Speed Precip Events Conditions
12:31 AM -7.6 °F - -11.2 °F 84% 30.26 in 10.0 mi Calm Calm - N/A   Scattered Clouds
12:54 AM -7.6 °F - -11.2 °F 84% 30.26 in 10.0 mi Calm Calm - N/A   Mostly Cloudy
12:56 AM -8.0 °F - -11.9 °F 83% 30.31 in 10.0 mi Calm Calm - N/A   Mostly Cloudy
1:23 AM -7.6 °F - -13.0 °F 77% 30.27 in 10.0 mi Calm Calm - N/A   Overcast
1:56 AM -7.1 °F - -13.0 °F 75% 30.31 in 9.0 mi Calm Calm - N/A   Overcast
2:56 AM -7.1 °F - -11.9 °F 79% 30.32 in 10.0 mi Calm Calm - N/A   Overcast
3:56 AM -7.1 °F - -11.9 °F 79% 30.32 in 10.0 mi Calm Calm - N/A   Overcast
4:56 AM -7.1 °F - -11.9 °F 79% 30.32 in 10.0 mi Calm Calm - N/A   Mostly Cloudy
5:26 AM -7.6 °F - -13.0 °F 77% 30.27 in 10.0 mi Calm Calm - N/A   Scattered Clouds
5:56 AM -8.0 °F - -13.0 °F 79% 30.33 in 10.0 mi Calm Calm - N/A   Clear
6:30 AM -7.6 °F - -13.0 °F 77% 30.28 in 10.0 mi Calm Calm - N/A   Mostly Cloudy
6:55 AM -9.4 °F - -14.8 °F 77% 30.34 in 10.0 mi Calm Calm - N/A   Mostly Cloudy
7:55 AM -9.4 °F - -14.8 °F 77% 30.35 in 10.0 mi Calm Calm - N/A   Mostly Cloudy
8:30 AM -9.4 °F - -16.6 °F 71% 30.30 in 10.0 mi Calm Calm - N/A   Partly Cloudy
8:55 AM -9.4 °F - -14.8 °F 77% 30.31 in 10.0 mi Calm Calm - N/A   Partly Cloudy
9:55 AM -11.2 °F - -16.6 °F 77% 30.36 in 10.0 mi Calm Calm - N/A   Partly Cloudy
10:55 AM -9.4 °F - -13.0 °F 84% 30.37 in 15.0 mi Calm Calm - N/A   Partly Cloudy
11:55 AM -5.8 °F - -9.4 °F 84% 30.38 in 10.0 mi Calm Calm - N/A   Partly Cloudy
12:55 PM -0.4 °F - -5.8 °F 78% 30.37 in 10.0 mi Calm Calm - N/A   Partly Cloudy
1:55 PM 1.4 °F - -2.2 °F 85% 30.38 in 10.0 mi Calm Calm - N/A   Partly Cloudy
2:55 PM -4.0 °F - -7.6 °F 85% 30.38 in 25.0 mi Calm Calm - N/A   Scattered Clouds
3:55 PM -0.4 °F - -5.8 °F 78% 30.38 in 25.0 mi Calm Calm - N/A   Scattered Clouds
4:55 PM -2.2 °F - -7.6 °F 78% 30.39 in 25.0 mi Calm Calm - N/A   Scattered Clouds
5:55 PM -4.0 °F - -9.4 °F 78% 30.40 in 7.0 mi Calm Calm - N/A   Scattered Clouds
6:55 PM -5.8 °F - -9.4 °F 84% 30.40 in 7.0 mi Calm Calm - N/A   Scattered Clouds
7:55 PM -5.8 °F - -9.4 °F 84% 30.41 in 7.0 mi Calm Calm - N/A   Scattered Clouds
8:55 PM -5.8 °F - -11.2 °F 77% 30.41 in 7.0 mi Calm Calm - N/A   Partly Cloudy
10:56 PM -5.1 °F -13.6 °F -11.0 °F 76% 30.43 in 10.0 mi NE 3.5 mph - N/A   Clear
11:56 PM -7.1 °F -15.9 °F -11.9 °F 79% 30.43 in 10.0 mi ESE 3.5 mph - N/A   Mostly Cloudy